Preview of NWS' New Version of Forecast
This preview is not operational and should not be used for support decisions.

Regional Weather Roundup (RWR)

Issued by National Weather Service (NWS)

                            
000
ASUS45 KBOU 240510
RWRCO 

WEATHER ROUNDUP FOR COLORADO
NATIONAL WEATHER SERVICE DENVER/BOULDER CO
1100 PM MDT TUE APR 23 2019

NOTE: "FAIR" INDICATES FEW OR NO CLOUDS BELOW 12000 FEET WITH NO
SIGNIFICANT WEATHER AND/OR OBSTRUCTIONS TO VISIBILITY.

COZ001>005-013-030-031-240600-
...NORTHWEST COLORADO...
  
CITY           SKY/WX    TMP DP  RH WIND       PRES   REMARKS
CRAIG          FAIR      39  32  76 CALM      30.09R                  
HAYDEN         FAIR      46  32  58 SW6       30.11R                  
MEEKER         FAIR      42  32  67 E3        30.10R                  
RANGELY        FAIR      45  35  68 CALM      30.06S                  
RABBIT EARS PA NOT AVBL                                               
STEAMBOAT SPGS FAIR      46  30  53 CALM      30.10S                  
WALDEN         FAIR      39  27  60 W3        30.15S                  
$$

COZ006>008-011-240600-
...WEST CENTRAL VALLEYS...
  
CITY           SKY/WX    TMP DP  RH WIND       PRES   REMARKS
GRAND JUNCTION FAIR      56  34  43 W5        30.02R                  
MONTROSE       FAIR      54  28  36 S6        30.06R                  
EAGLE          FAIR      48  29  47 CALM      30.12R                  
RIFLE          FAIR      52  33  48 SW6       30.05R                  
DELTA          FAIR      62  26  25 CALM      30.02R                  
NUCLA          FAIR      52  34  50 SE5       30.11R                  
$$

COZ017>023-064>068-240600-
...SOUTHWEST COLORADO...
  
CITY           SKY/WX    TMP DP  RH WIND       PRES   REMARKS
DURANGO        MOCLDY    41  37  86 N8        30.14R                  
CORTEZ         FAIR      42  37  82 NE6       30.11R                  
PAGOSA SPRINGS FAIR      41  41  99 CALM      30.18R                  
TELLURIDE      MOCLDY    41  34  75 E3        30.22R                  
WOLF CREEK PAS CLOUDY    28  28 100 N8        30.34R WCI  20          
$$

COZ009-010-012-014-032>034-037-058>063-240600-
...CENTRAL COLORADO...
  
CITY           SKY/WX    TMP DP  RH WIND       PRES   REMARKS
ASPEN          MOCLDY    45  30  55 S9        30.13R                  
BUENA VISTA    FAIR      37  32  84 W6        30.16R                  
COPPER MTN     NOT AVBL                                               
BERTHOUD PASS  CLOUDY    28  18  64 NW17G28   30.29R WCI  16          
COTTONWOOD PAS FAIR      41  30  65 SW3       30.22S                  
GUNNISON       FAIR      41  32  70 N7        30.14R                  
GRANBY         FAIR      42  28  57 NW3       30.15R                  
KREMMLING      FAIR      45  30  57 W3        30.13R                  
LEADVILLE      CLOUDY    32  25  75 CALM      30.21R                  
MONARCH PASS   CLOUDY    32  28  86 SW10      30.39S WCI  24          
SALIDA         FAIR      43  36  77 CALM      30.22R                  
SUNLIGHT       FAIR      34  23  64 N3        30.30S                  
WILKERSON PASS FAIR      32  27  80 SW3       30.28S                  
$$

COZ069>075-240600-
...SAN LUIS VALLEY/SANGRE DE CRISTO MOUNTAINS...
  
CITY           SKY/WX    TMP DP  RH WIND       PRES   REMARKS
ALAMOSA        FAIR      41  37  86 CALM      30.16S                  
DEL NORTE      CLOUDY    40  37  90 W6        30.18F                  
LA VETA PASS   NOT AVBL                                               
SAGUACHE       FAIR      39  39 100 CALM      30.17S                  
$$

COZ035-036-038>040-240600-
...NORTHERN COLORADO FRONT RANGE...
  
CITY           SKY/WX    TMP DP  RH WIND       PRES   REMARKS
DENVER INTL AP FAIR      49  40  71 S12       30.01R                  
AURORA         PTCLDY    48  38  69 S9        30.02S                  
FRONT RANGE AP FAIR      49  42  75 S10       30.02S                  
ERIE MUNI ARPT MOCLDY    46  39  75 CALM      30.05S                  
BOULDER MUN AP CLOUDY    52  37  58 CALM      30.00R                  
CENTENNIAL     FAIR      47  38  71 S6        30.03R                  
BROOMFIELD     FAIR      52  36  54 CALM      30.02R                  
FORT COLLINS   FAIR      53  41  63 CALM      30.00S                  
LONGMONT       FAIR      50  40  69 SW3       30.01S                  
$$

COZ041-046-047-076>085-087-088-240600-
...PIKES PEAK/PALMER DIVIDE AND SOUTHERN FOOTHILLS...
  
CITY           SKY/WX    TMP DP  RH WIND       PRES   REMARKS
COLO. SPRINGS  FAIR      42  34  73 N3        30.08F                  
A. F. ACADEMY  FAIR      40  35  81 N6        30.07F                  
SCHRIEVER AFB  NOT AVBL                                               
CHEYENNE MTN   FAIR      42  36  79 CALM      30.04F                  
ELLICOTT         N/A    N/A N/A N/A NW3       30.06F                  
FALCON         FAIR      38  35  89 W5        30.10F                  
FORT CARSON    FAIR      45  37  74 CALM      30.06F                  
LIMON          FAIR      43  37  79 CALM      30.04F                  
MONUMENT HILL  FAIR      37  34  87 S8        30.10S                  
CANON CITY     NOT AVBL                                               
WALSENBURG     NOT AVBL                                               
TRINIDAD       FAIR      44  39  82 W15       30.05F                  
$$

COZ042>045-048>051-090-091-240600-
...NORTHEAST COLORADO...
  
CITY           SKY/WX    TMP DP  RH WIND       PRES   REMARKS
GREELEY ARPT   FAIR      47  43  86 NW5       29.98S                  
AKRON          FAIR      48  38  68 S10       29.99S                  
BURLINGTON     FAIR      45  34  65 SW8       30.01F                  
WRAY           FAIR      46  32  57 SW3       29.99F                  
YUMA           NOT AVBL                                               
STERLING       FAIR      48  37  66 SW7       29.96S                  
HOLYOKE        FAIR      46  32  57 S10       29.98F                  
FORT MORGAN      N/A     48  37  63 S6        29.99R                  
$$

COZ086-089-092>099-240600-
...SOUTHEAST COLORADO...
  
CITY           SKY/WX    TMP DP  RH WIND       PRES   REMARKS
PUEBLO         FAIR      44  37  76 NE6       30.04S                  
LA JUNTA       FAIR      49  40  71 S5        30.03F                  
LAMAR          FAIR      45  39  79 S9        30.01F                  
SPRINGFIELD      N/A     37  37 100 SW3       30.05F                  
$$